"Pseudo-MPEC" for C3ZZ5M2

Created 2020 Nov 23 20:07:14 UT using Find_Orb

Click here for an explanation of pseudo-MPECs

 
 Astrometry: 
     C3ZZ5M2  C2020 11 19%/j[1O+nO7$ilRX8]Bk.cv=(^h.[e3j/I^TJ3E(VAstrometry7ZF51
     C3ZZ5M2  C2020 11 190Iredacted;LGlclickUl[Rccj+Kp9JbLpP,Xb-mM1?t#7PIr\g6F51
     C3ZZ5M2  C2020 11 22.30025804 34 46.67 +28 11 18.5    ~BM7q 20.67GVNEOCPG96
     C3ZZ5M2  C2020 11 22.30533904 34 46.48 +28 11 46.1    ~BM7q 20.75GVNEOCPG96
     C3ZZ5M2  C2020 11 22.31042604 34 46.25 +28 12 13.4    ~BM7q 21.36GVNEOCPG96
     C3ZZ5M2  C2020 11 22.31551504 34 46.06 +28 12 40.1    ~BM7q       VNEOCPG96
     C3ZZ5M2 KC2020 11 22.32932104 34 45.53 +28 13 54.3    ~BM8M 20.75GVNEOCPV06
     C3ZZ5M2 KC2020 11 22.33090604 34 45.48 +28 14 02.6    ~BM8M 21.17GVNEOCPV06
     C3ZZ5M2 KC2020 11 22.33249004 34 45.41 +28 14 11.5    ~BM8M 20.67GVNEOCPV06
     C3ZZ5M2 KC2020 11 22.40397404 34 42.68 +28 20 29.3    ~BMA7 20.68GVNEOCPV06
     C3ZZ5M2 KC2020 11 22.40635104 34 42.60 +28 20 41.5    ~BMA7 20.45GVNEOCPV06
     C3ZZ5M2 KC2020 11 22.40872804 34 42.51 +28 20 54.1    ~BMA7 20.70GVNEOCPV06
     C3ZZ5M2 IC2020 11 22Lr;,iTWI]gg4s)F669c!37$Jg(w#og*g(60]m3SQU@?N#en%[olsL01
     C3ZZ5M2 hC2020 11 22Np`VGK4Hlq^#.,6;]k6t9glaFNWlG+caa0%herefy'XJ@[XLLM/qL01
     C3ZZ5M2 hC2020 11 22ceEW,8-@uforyAZ(uMbaC@PcUb5[5x-ScR0JDNWd$explanationL01
     C3ZZ5M2 KC2020 11 23.18027104 34 38.17 +29 30 09.7    ~BN4q 20.71GVNEOCPV06
     C3ZZ5M2 KC2020 11 23.18293504 34 38.11 +29 30 24.3    ~BN4q       VNEOCPV06
     C3ZZ5M2 KC2020 11 23.18559904 34 38.02 +29 30 39.6    ~BN4q 20.49GVNEOCPV06
     C3ZZ5M2 KC2020 11 230+^Mh4*uZMod7%LL:;KGnhX8xaIceZH#-j7atgA6+9;1?VLDWugWH21
     C3ZZ5M2 KC2020 11 23S%V:OsYcu7p@N1:oRp,7/!)1NMi#:Wt0K#)_fYv6y$GmtSdZjM5lH21

Station data:
(F51) Pan-STARRS 1, Haleakala  (N20.707235 W156.255910)  US/Hawaii.
   Observers N. Primak, A. Schultz, S. Watters, J. Thiel, T. Goggia. Measurer
   PS1 Science Consortium. 1.8-m Ritchey-Chrétien + CCD.
(G96) Mt. Lemmon Survey  (N32.442754 W110.788720)  US/Arizona.  Observers T.
   A. Pruyne, B. M. Africano, E. J. Christensen, G. A. Farneth, D. C. Fuls,
   A. R. Gibbs, A. D. Grauer, H. Gröller, J. A. Johnson, R. A. Kowalski, S.
   M. Larson, G. J. Leonard, D. Rankin, R. L. Seaman, F. C. Shelly. 1.5-m
   reflector + 10K CCD.
(H21) Astronomical Research Observatory, Westfield  (N39.483057 W87.968270)
   US/Illinois. 0.76-m f/3.0 astrograph + CCD.
(L01) Višnjan Observatory, Tičan  (N45.290900 E13.749300)  Croatia.
   Observers K. Korlević, E. Pettarin. Measurer E. Pettarin. 1.0-m f/2.9
   reflector + CCD.
(V06) Catalina Sky Survey-Kuiper  (N32.416847 W110.732550)  US/Arizona.
   Observers T. A. Pruyne, B. M. Africano, E. J. Christensen, G. A. Farneth,
   D. C. Fuls, A. R. Gibbs, A. D. Grauer, H. Gröller, J. A. Johnson, R. A.
   Kowalski, S. M. Larson, G. J. Leonard, D. Rankin, R. L. Seaman, F. C.
   Shelly. 1.55-m reflector + CCD.

Orbital elements:  C3ZZ5M2
   Perihelion 2021 Jan 2.380135 +/- 0.0567 TT =  9:07:23 (JD 2459216.880135)
Epoch 2020 Nov 23.0 TT = JDT 2459176.5   Earth MOID: 0.1157   Ma: 0.0225
M 335.48127067 +/- 0.15             (J2000 ecliptic)          AutoNEOCP
n   0.60719780 +/- 0.00325          Peri.   43.55709 +/- 0.06
a   1.38117673 +/- 0.00492          Node    57.46881 +/- 0.013
e   0.2276470 +/- 0.0022            Incl.   10.13788 +/- 0.08
P   1.62/592.88d           H 24.9   G  0.15   U  8.9  
q 1.06675592 +/- 0.000778    Q 1.69559754 +/- 0.0091
From 20 observations 2020 Nov. 19-23; mean residual 0".36
Residuals in arcseconds: 
201119 F51  .03-  .06-    201122 V06  .12+  .14+    201122 L01  .63-  1.3-    
201119 F51  .03+  .05+    201122 V06  .01+  .61+    201123 V06  .42-  .17+    
201122 G96  .03-  .31-    201122 V06  .10+  .27+    201123 V06  .12-  .13-    
201122 G96  .06+  .10+    201122 V06  .18+  .02-    201123 V06  .19-  .28+    
201122 G96  .36-  .21+    201122 V06  .13+  .08+    201123 H21  .22-  .57+    
201122 G96  .25-  .27-    201122 L01  .87+  .35+    201123 H21  .20+  .09-    
201122 V06  .04-  .28+    201122 L01  .46+  .28-    

Ephemerides (geocentric):
Date (UTC) HH   RA              Dec         delta   r     elong  mag " sig PA
---- -- -- --  -------------   -----------  ------ ------ -----  --- ---- ---
2020 11 23 20  04 34 25.104   +30 30 11.72  .12623 1.1107 167.1 21.3 .420 124
2020 11 23 21  04 34 24.458   +30 34 02.59  .12615 1.1106 167.1 21.3 .431 124
2020 11 23 22  04 34 23.809   +30 37 53.69  .12608 1.1105 167.1 21.3 .443 124
2020 11 23 23  04 34 23.155   +30 41 45.03  .12600 1.1105 167.1 21.3 .454 124
2020 11 24 00  04 34 22.497   +30 45 36.59  .12593 1.1104 167.1 21.3 .465 124
2020 11 24 01  04 34 21.835   +30 49 28.38  .12586 1.1103 167.0 21.3 .476 124
2020 11 24 02  04 34 21.169   +30 53 20.40  .12578 1.1102 167.0 21.3 .488 124
2020 11 24 03  04 34 20.498   +30 57 12.64  .12571 1.1101 167.0 21.3 .499 124
2020 11 24 04  04 34 19.823   +31 01 05.12  .12564 1.1100 167.0 21.3 .511 124
2020 11 24 05  04 34 19.144   +31 04 57.81  .12557 1.1099 167.0 21.3 .523 124
2020 11 24 06  04 34 18.461   +31 08 50.73  .12549 1.1098 167.0 21.3 .534 124
2020 11 24 07  04 34 17.774   +31 12 43.87  .12542 1.1098 166.9 21.3 .546 124
2020 11 24 08  04 34 17.082   +31 16 37.24  .12535 1.1097 166.9 21.3 .558 124
2020 11 24 09  04 34 16.387   +31 20 30.83  .12528 1.1096 166.9 21.3 .570 124
2020 11 24 10  04 34 15.687   +31 24 24.63  .12521 1.1095 166.9 21.3 .581 124
2020 11 24 11  04 34 14.983   +31 28 18.66  .12514 1.1094 166.9 21.3 .593 124
2020 11 24 12  04 34 14.275   +31 32 12.91  .12507 1.1093 166.8 21.3 .605 124
2020 11 24 13  04 34 13.562   +31 36 07.37  .12499 1.1092 166.8 21.3 .618 124
2020 11 24 14  04 34 12.846   +31 40 02.05  .12492 1.1092 166.8 21.3 .630 124
2020 11 24 15  04 34 12.125   +31 43 56.95  .12485 1.1091 166.8 21.3 .642 124
2020 11 24 16  04 34 11.400   +31 47 52.07  .12478 1.1090 166.7 21.3 .654 124
2020 11 24 17  04 34 10.671   +31 51 47.40  .12472 1.1089 166.7 21.3 .666 124
2020 11 24 18  04 34 09.937   +31 55 42.94  .12465 1.1088 166.7 21.3 .679 124
2020 11 24 19  04 34 09.200   +31 59 38.69  .12458 1.1087 166.7 21.3 .691 124
2020 11 24 20  04 34 08.458   +32 03 34.66  .12451 1.1086 166.6 21.3 .704 124
2020 11 24 21  04 34 07.713   +32 07 30.84  .12444 1.1085 166.6 21.3 .716 124
2020 11 24 22  04 34 06.963   +32 11 27.23  .12437 1.1085 166.6 21.3 .729 124
2020 11 24 23  04 34 06.208   +32 15 23.83  .12430 1.1084 166.6 21.3 .741 124
2020 11 25 00  04 34 05.450   +32 19 20.63  .12424 1.1083 166.5 21.3 .754 124
2020 11 25 01  04 34 04.688   +32 23 17.65  .12417 1.1082 166.5 21.3 .767 124
2020 11 25 02  04 34 03.921   +32 27 14.87  .12410 1.1081 166.5 21.3 .780 124
2020 11 25 03  04 34 03.150   +32 31 12.29  .12404 1.1080 166.5 21.3 .792 124
2020 11 25 04  04 34 02.375   +32 35 09.92  .12397 1.1079 166.4 21.3 .805 124
2020 11 25 05  04 34 01.596   +32 39 07.76  .12390 1.1079 166.4 21.3 .818 124
2020 11 25 06  04 34 00.813   +32 43 05.79  .12384 1.1078 166.4 21.3 .831 124
2020 11 25 07  04 34 00.025   +32 47 04.03  .12377 1.1077 166.3 21.3 .844 124
2020 11 25 08  04 33 59.234   +32 51 02.47  .12371 1.1076 166.3 21.3 .857 124
2020 11 25 09  04 33 58.438   +32 55 01.11  .12364 1.1075 166.3 21.3 .870 124
2020 11 25 10  04 33 57.638   +32 58 59.95  .12358 1.1074 166.2 21.3 .883 124
2020 11 25 11  04 33 56.834   +33 02 58.99  .12351 1.1073 166.2 21.3 .897 124
2020 11 25 12  04 33 56.026   +33 06 58.22  .12345 1.1073 166.2 21.3 .910 124
2020 11 25 13  04 33 55.214   +33 10 57.65  .12338 1.1072 166.2 21.3 .923 124
2020 11 25 14  04 33 54.397   +33 14 57.28  .12332 1.1071 166.1 21.3 .936 124
2020 11 25 15  04 33 53.576   +33 18 57.10  .12326 1.1070 166.1 21.3 .950 124
2020 11 25 16  04 33 52.752   +33 22 57.11  .12319 1.1069 166.1 21.3 .963 124
2020 11 25 17  04 33 51.923   +33 26 57.32  .12313 1.1068 166.0 21.3 .976 124
2020 11 25 18  04 33 51.090   +33 30 57.71  .12307 1.1068 166.0 21.3 .990 124
2020 11 25 19  04 33 50.252   +33 34 58.30  .12301 1.1067 166.0 21.3 1.00 124